User: anonymous   Login
Location: Bonningues
(50.7927°N, 2.0150°E)
Time: 07:54:19
(UTC+00:00)
Language:

Cosmos 2366 rocket - Orbit

View from above orbital plane
View from above orbital plane
View from above satellite
View from above satellite

Ground track
Ground track

The orbit data is extracted from the following two-line orbital elements,

1 25893U 99045B   20299.96151134 +.00000006 +00000-0 -86389-5 0  9992
2 25893 082.9296 191.3093 0027293 264.5821 105.6869 13.76540322063436
Epoch (UTC): 25 October 2020 23:04:34
Eccentricity: 0.0027293
inclination: 82.9296°
perigee height: 956 km
apogee height: 996 km
right ascension of ascending node: 191.3093°
argument of perigee: 264.5821°
revolutions per day: 13.76540322
mean anomaly at epoch: 105.6869°
orbit number at epoch: 6343

The dashed part of the orbit path shows where the satellite is in the earth's shadow,  

DLR